Location: Home
(42.5358°N, 72.7383°W)
Time: 06:50:18
(UTC-05:00)

Courier 1B Rocket - Pass Details

Date: 29 November 2021
Orbit: 920 x 1202 km, 28.2° (Epoch: 25 January)

Event Time Altitude Azimuth Distance (km) Brightness Sun altitude
Rises 00:54:01 0° 229° (SW) 3,543 - -63.8°
Reaches altitude 10° 00:57:23 10° 211° (SSW) 2,603 - -63.4°
Maximum altitude 01:01:34 19° 169° (S) 2,057 - -62.8°
Drops below altitude 10° 01:05:49 10° 126° (SE) 2,656 - -62.3°
Sets 01:09:18 0° 109° (ESE) 3,641 - -61.8°
